Temp
21 21 21 20 20 20 19 19 19 19 18 19 19 18 18 19 19 20 20 20 21 19 18 18 18 18 18 18 18 19 19 19 17 19 19 19 20 19 19 19 19 20 20
22 21 21 20 20 20 19 19 19 19 18 18 18 18 18 19 19 19 19 19 18 18 17 17 17 17 17 17 18 19 19 19 18 19 18 18 18 19 19 18 18 20 19
22 21 21 20 20 20 19 19 18 18 18 18 18 18 18 18 18 18 18 17 17 17 17 17 17 17 17 17 17 17 17 18 19 18 16 17 17 17 17 17 17 17 17
22 22 22 21 20 20 19 18 18 18 18 17 17 17 17 17 17 17 17 16 16 16 16 16 16 17 17 17 17 16 16 17 18 18 17 17 17 17 17 17 16 16 16
22 22 22 22 21 20 19 18 18 18 17 17 17 17 17 17 17 17 17 16 16 16 15 15 15 16 16 16 16 16 16 16 16 16 16 16 16 16 16 16 16 15 15
23 22 22 22 20 19 18 18 17 17 17 17 16 16 16 15 16 16 16 16 15 15 14 14 14 15 15 15 15 15 16 15 16 15 16 15 14 14 14 15 15 15 14
22 22 22 21 20 19 18 18 17 16 16 16 15 15 15 15 15 15 15 15 14 14 14 14 13 13 13 14 14 14 15 15 16 16 15 13 13 13 14 14 14 14 13
21 21 21 20 19 18 18 17 16 16 16 15 14 15 15 15 15 15 15 15 14 13 13 13 13 13 13 13 14 14 13 13 13 13 13 12 13 13 14 14 14 14 13
19 20 20 19 17 16 16 15 15 15 14 14 14 14 15 15 14 15 15 14 13 13 13 13 13 13 13 13 14 12 12 11 11 12 12 12 12 13 13 14 14 13 12
14 16 17 17 16 15 14 13 13 13 12 13 13 13 12 12 12 13 14 13 12 11 11 12 12 12 12 12 12 12 11 10 11 11 11 11 12 12 12 12 12 11 10
13 14 15 15 15 14 14 13 13 12 12 11 11 11 11 12 11 12 13 12 11 11 10 10 11 12 12 12 12 11 10 11 11 10 10 10 11 11 10 10 10 10 9
11 12 11 12 11 12 12 11 10 11 10 9 9 9 9 10 10 10 11 12 12 11 10 9 9 10 10 11 10 10 10 10 11 10 10 10 10 10 10 10 9 9 9
10 9 9 9 9 8 9 8 8 9 8 8 8 8 8 8 9 9 9 10 10 10 9 9 9 9 10 10 10 10 10 10 10 10 10 10 10 10 10 10 10 10 10
8 8 8 8 8 8 8 8 8 8 7 7 7 7 7 7 8 8 9 9 9 9 9 9 9 9 9 9 10 10 9 9 9 9 9 9 10 9 9 9 9 9 10
7 7 7 8 7 8 8 8 9 8 9 8 8 7 7 7 8 8 8 9 9 9 9 9 9 9 9 9 9 9 9 9 9 9 9 9 9 9 9 9 9 9 8
8 7 7 8 8 8 8 8 8 8 8 8 8 8 8 8 8 8 9 9 10 10 9 9 9 9 9 9 8 8 9 9 8 8 8 8 8 8 8 8 8 8 8
9 9 9 9 9 9 9 8 7 7 8 8 8 8 8 8 8 9 9 9 9 10 10 9 9 8 8 8 8 8 8 8 8 8 8 8 8 8 8 8 8 8 8
10 10 10 10 10 10 10 9 9 8 8 7 7 8 8 9 9 9 10 10 10 10 9 9 9 8 8 8 8 8 7 8 7 7 7 7 7 7 7 7 7 7 7
11 11 11 11 11 11 10 10 10 10 10 9 9 9 9 10 10 10 10 11 10 9 9 9 9 8 8 7 7 7 7 8 7 7 7 7 7 7 7 7 7 7 7
13 13 12 12 11 10 10 9 10 10 10 10 10 10 10 10 10 10 10 10 9 9 9 9 8 8 8 8 7 7 7 8 7 7 7 6 6 6 6 7 7 7 7
13 13 13 12 11 11 11 11 10 10 10 10 10 10 10 10 10 10 10 9 9 9 9 8 8 8 7 7 7 7 7 7 7 6 6 6 6 6 6 6 6 6 6
15 15 15 15 13 13 12 12 11 11 11 10 10 10 10 10 10 10 9 9 9 9 8 8 8 8 7 7 7 7 7 6 6 6 6 5 5 5 5 6 6 6 6
15 15 15 15 15 14 14 12 12 12 11 11 11 10 10 10 10 10 9 9 9 8 8 8 8 7 7 7 7 7 7 6 6 5 5 5 5 5 5 5 5 6 6
15 16 15 14 14 14 13 13 12 12 11 11 12 11 11 11 10 10 9 9 9 8 8 8 8 8 7 6 6 6 6 5 5 4 4 4 4 4 5 5 5 5 5
16 15 15 15 14 14 13 13 13 13 13 12 12 12 11 11 10 10 9 9 9 8 8 8 8 7 7 6 6 5 5 5 4 4 4 4 4 4 4 4 4 5 5
15 16 15 14 14 14 14 13 13 13 13 13 12 12 11 11 11 10 9 9 9 8 8 8 7 7 7 7 6 6 5 5 5 4 4 4 4 4 4 4 4 5 5
Height
784 783 784 784 783 781 781 781 780 780 779 775 776 776 776 776 778 780 782 784 786 789 793 796 798 802 803 806 809 811 813 813 814 810 810 810 811 812 814 817 819 822 822
782 783 784 784 783 781 782 782 783 782 781 779 778 779 778 778 778 780 781 784 787 791 793 796 798 801 801 806 808 810 810 811 812 809 807 811 811 813 814 817 819 821 822
783 784 785 785 784 783 783 784 784 783 782 782 782 782 782 782 782 783 784 787 790 792 795 797 799 802 804 806 806 808 808 809 809 809 810 812 813 814 816 818 819 821 821
782 783 784 785 785 785 785 786 785 785 785 786 787 786 787 787 787 788 790 791 793 797 799 800 802 803 805 806 807 807 808 810 809 810 812 814 815 816 818 818 820 822 822
780 783 784 785 785 786 788 788 787 787 788 790 789 790 791 791 793 794 796 797 798 799 800 802 803 803 805 806 807 808 810 810 811 811 813 815 817 817 818 818 821 823 825
778 780 782 784 785 787 789 790 790 791 792 792 793 794 794 795 796 797 799 800 802 803 803 804 804 804 805 806 808 809 810 811 811 813 813 814 815 816 816 817 820 822 825
778 779 781 782 784 785 788 791 792 793 795 796 797 798 798 798 800 801 802 803 804 805 805 806 807 807 808 808 810 811 810 810 810 810 811 814 815 816 817 817 818 820 821
776 778 780 782 782 785 787 791 794 795 797 799 800 800 801 801 802 803 804 805 806 807 808 809 810 812 812 812 813 813 814 814 813 813 814 816 818 818 818 820 821 821 823
775 776 777 779 783 785 788 791 795 797 799 801 802 803 803 803 805 806 807 807 808 811 812 813 814 816 818 818 817 818 819 820 822 822 822 822 822 821 822 823 823 824 825
777 776 778 778 781 787 791 793 796 800 802 803 804 805 806 807 809 810 810 811 812 815 817 818 820 821 822 823 822 823 823 824 825 826 826 826 827 827 827 827 826 826 827
780 778 778 779 781 787 792 798 798 800 803 805 807 808 809 811 814 815 815 815 817 819 821 824 825 826 826 826 825 825 826 827 827 828 829 829 830 829 829 829 828 828 828
783 783 783 785 788 790 793 799 801 801 806 808 810 812 814 815 817 819 819 819 820 822 825 827 828 829 829 829 829 830 829 829 829 831 832 833 832 832 832 832 831 832 831
788 789 790 792 793 794 797 802 802 806 809 811 813 815 818 820 820 822 823 824 826 826 829 830 831 832 831 832 831 833 833 833 833 833 834 834 835 834 835 834 833 832 832
794 795 798 798 801 800 802 807 808 811 812 815 816 819 821 822 823 825 826 827 829 830 832 833 834 834 835 835 835 836 836 836 836 836 836 836 836 836 835 834 834 833 832
801 802 804 805 807 807 811 815 813 817 820 819 819 822 824 825 827 829 830 831 832 833 834 835 836 837 837 838 839 839 839 839 839 839 839 838 838 838 837 835 834 834 833
806 810 813 813 814 815 816 818 821 824 824 824 824 826 828 830 831 832 833 834 835 836 837 838 839 840 840 841 842 842 842 841 841 841 841 840 840 839 838 837 835 835 834
811 815 817 818 819 820 821 822 824 827 828 828 829 830 832 833 835 836 836 837 838 839 840 841 842 843 843 844 844 844 843 843 843 842 842 842 841 840 839 838 836 836 835
818 820 821 822 823 823 824 825 827 827 829 832 834 834 836 837 838 838 838 838 840 841 841 842 843 845 845 845 845 845 844 844 844 843 843 843 842 841 840 839 838 837 836
821 823 823 824 826 828 828 829 830 831 832 834 835 837 838 839 840 840 839 840 841 842 843 844 845 845 846 846 846 846 845 844 845 845 845 844 844 842 841 841 840 839 837
823 825 824 826 828 830 832 833 833 833 834 835 836 838 839 841 841 842 842 842 843 843 844 845 845 846 847 847 847 847 845 845 846 846 845 845 844 843 842 841 840 838 837
822 824 825 826 827 828 830 831 833 833 833 835 836 838 840 841 842 842 843 843 843 844 844 845 846 846 847 847 847 847 846 846 846 846 846 845 844 843 842 841 840 838 836
822 822 823 824 825 826 827 828 830 831 833 834 836 838 839 840 841 842 843 843 844 844 844 845 845 846 847 847 847 846 846 846 846 846 845 844 843 842 841 840 839 837 836
821 821 822 822 823 825 827 828 828 830 832 833 834 836 838 839 840 841 842 843 843 843 844 844 844 845 846 846 845 845 844 844 844 844 844 842 841 841 840 839 838 837 836
820 819 818 819 821 822 824 826 827 828 830 832 833 834 836 837 838 839 841 841 842 842 843 844 844 844 844 844 843 843 843 843 842 842 841 840 839 840 839 839 838 837 836
816 815 814 815 818 819 821 822 824 825 826 828 830 832 833 834 836 837 838 839 840 840 841 842 843 843 843 843 843 842 841 841 840 839 838 838 838 839 838 837 837 836 835
816 814 813 815 817 818 818 820 821 822 823 824 826 827 829 830 832 833 834 835 836 837 838 840 841 841 842 842 841 840 839 839 838 838 837 836 837 838 837 836 835 834 834
Wind_Speed
7 7 7 7 8 9 10 10 11 11 9 8 5 2 2 5 8 11 12 14 15 17 15 13 13 17 15 13 7 11 17 6 7 5 5 7 8 10 7 0 5 12 10
7 7 8 6 6 7 8 9 9 10 12 12 13 11 10 10 10 10 11 14 15 12 12 10 10 12 9 8 9 4 4 5 7 7 7 5 7 4 5 7 10 11 10
10 9 9 7 6 8 9 8 9 10 12 14 13 15 15 15 15 15 15 15 17 16 17 17 20 20 17 14 14 13 14 12 9 4 6 3 2 9 10 8 5 7 6
12 9 9 8 6 7 9 9 11 13 15 16 17 18 18 19 20 21 22 25 25 23 21 20 19 19 18 16 17 13 11 11 14 9 7 7 4 3 8 10 6 8 9
15 11 8 7 8 10 10 12 14 16 17 17 17 17 17 15 12 11 11 10 10 11 11 12 13 11 7 5 4 5 5 6 7 7 4 1 1 4 6 6 7 10 9
21 17 14 13 13 14 13 13 17 17 16 15 15 15 16 16 12 12 12 12 11 11 12 11 10 8 8 6 5 3 3 4 4 5 6 5 3 3 4 7 12 12 3
17 18 18 20 21 20 19 18 18 17 14 14 13 11 13 14 12 12 12 13 14 13 11 10 9 9 9 8 7 6 5 4 8 14 13 11 9 8 8 9 10 6 5
6 19 22 23 25 25 25 22 21 18 14 12 11 10 11 12 10 11 12 13 13 12 11 8 9 11 13 15 18 20 21 21 18 16 15 13 9 6 6 7 9 12 11
3 19 25 26 28 28 28 26 21 19 17 14 13 11 11 15 12 13 15 17 17 15 13 15 16 14 14 15 19 22 22 21 19 19 17 14 12 10 7 6 8 7 4
6 12 22 29 30 28 27 27 23 20 19 17 16 14 15 15 13 13 14 18 21 21 20 18 16 16 14 15 18 17 17 14 12 12 11 11 12 13 12 10 6 8 6
8 16 24 29 31 30 28 24 23 21 20 20 21 20 18 17 14 10 12 17 21 23 23 23 20 16 15 13 13 14 13 10 11 11 10 9 10 12 12 11 10 6 2
14 18 20 23 25 28 28 23 22 23 23 23 23 22 21 20 16 13 14 17 18 21 20 17 15 13 13 12 12 11 12 12 12 13 10 8 10 10 9 5 6 4 3
19 21 21 22 22 22 25 22 23 22 23 21 20 20 19 19 20 18 18 18 16 18 17 18 17 15 15 15 15 15 13 13 13 13 11 9 9 8 6 7 5 5 3
26 24 23 25 22 23 22 19 21 21 21 19 20 19 19 18 18 18 18 19 21 21 17 14 12 13 13 14 15 15 14 13 10 10 10 9 8 9 10 8 7 8 6
24 24 25 25 25 27 24 20 21 16 16 20 20 20 19 19 18 18 18 16 14 11 10 8 8 9 7 9 12 13 13 10 12 11 10 11 11 10 11 13 6 5 8
24 20 21 25 27 26 27 24 19 16 14 13 13 14 16 15 14 14 14 12 11 12 16 14 12 12 14 13 12 14 13 12 11 11 10 10 10 11 12 12 9 6 7
27 26 26 27 27 26 24 25 23 17 15 15 14 14 15 16 14 11 8 9 14 10 14 13 10 13 14 12 10 10 10 9 7 10 10 11 10 11 13 12 6 7 8
26 26 27 27 26 24 23 22 21 20 18 15 14 15 15 12 10 8 8 11 14 12 14 12 13 11 9 7 7 7 7 8 11 12 12 11 11 10 12 10 10 8 6
21 23 24 24 22 20 21 21 20 20 18 17 15 13 11 10 10 10 11 13 12 11 10 8 5 5 6 6 6 5 8 3 5 7 8 8 8 10 10 9 8 10 10
20 19 20 19 19 17 16 16 17 18 18 17 16 14 11 8 8 10 12 12 11 8 7 5 5 3 4 3 4 5 9 2 7 4 4 5 7 10 9 6 8 10 12
18 19 18 18 20 21 22 19 20 20 18 15 14 13 10 7 6 6 11 9 8 7 6 6 7 5 7 4 1 4 5 7 5 1 3 6 7 8 5 8 9 12 6
20 18 18 14 18 20 20 21 27 22 17 15 14 13 8 6 13 14 11 8 5 3 1 4 5 6 8 3 2 2 2 7 6 4 3 6 8 4 4 7 11 8 6
19 15 15 20 15 14 14 13 17 21 18 14 13 16 13 18 16 13 11 10 8 6 5 4 2 9 7 4 4 4 5 8 7 5 6 10 6 1 4 6 5 6 8
5 12 22 21 19 17 15 13 14 19 23 19 19 20 17 19 17 15 13 10 9 7 7 9 9 5 3 4 2 2 4 5 5 7 8 5 3 1 3 4 5 6 7
6 9 20 25 21 19 18 16 17 16 20 23 22 21 19 18 21 17 14 11 9 10 12 14 9 2 6 4 1 4 5 6 6 4 4 4 3 2 2 4 4 5 6
8 3 9 21 18 18 21 21 22 20 21 22 24 25 24 23 20 18 19 15 13 10 17 15 9 5 5 5 2 1 1 2 2 2 3 5 6 3 1 7 5 6 7
Wind_Direction
151 136 123 107 83 74 62 58 60 54 57 83 91 107 180 205 214 208 223 215 212 195 187 185 193 186 176 191 234 251 257 219 222 217 183 180 193 190 167 194 194 210 217
160 170 158 141 104 88 71 68 70 66 65 80 82 76 87 110 132 160 157 133 133 147 166 166 177 163 162 162 196 259 227 246 252 223 150 139 160 175 231 183 239 232 225
179 189 194 187 139 100 93 88 79 80 82 82 84 83 85 98 106 112 123 128 128 131 140 146 155 147 138 145 122 110 82 68 48 85 74 109 132 163 162 163 163 183 168
185 177 193 198 168 122 109 103 90 96 99 92 88 90 94 99 104 107 112 117 116 111 109 112 127 136 130 115 108 105 105 77 68 75 66 71 72 144 177 158 139 145 129
187 174 165 160 150 137 119 112 107 109 107 104 101 100 101 99 102 115 124 126 123 118 111 110 104 108 114 115 105 101 95 82 71 77 83 77 76 177 200 178 176 154 138
195 180 169 159 144 131 132 128 123 119 117 115 107 110 105 97 99 104 113 115 114 117 118 119 120 123 118 126 118 109 107 152 161 203 208 204 195 162 194 192 171 147 123
217 183 171 153 145 137 136 138 134 126 120 108 105 113 113 110 106 112 112 111 108 104 100 100 106 98 97 104 105 107 117 185 224 226 185 146 128 136 120 116 166 168 132
183 183 168 156 149 145 143 139 136 133 122 113 103 107 117 123 126 127 126 121 113 110 97 99 115 103 102 113 112 100 88 81 85 105 112 103 96 120 139 147 152 142 123
55 179 167 161 151 149 144 142 139 134 126 117 109 110 110 130 137 129 128 122 114 108 106 104 114 114 117 114 106 95 87 78 77 79 81 82 86 92 125 145 105 141 77
64 144 158 157 153 148 144 140 134 126 117 113 107 107 114 120 125 137 134 125 114 104 100 108 112 113 111 108 102 97 85 72 80 78 80 72 65 59 50 52 55 57 49
108 130 140 150 155 154 146 143 135 126 122 115 105 100 108 120 118 124 133 128 118 109 98 92 96 100 96 89 85 80 77 84 85 91 99 89 52 39 38 38 30 38 88
117 122 124 136 140 145 143 137 133 129 125 117 112 102 100 108 111 107 115 118 120 111 99 92 84 79 77 76 73 65 60 69 79 87 94 68 57 50 46 42 35 13 38
107 96 99 109 119 121 127 128 126 128 128 122 116 109 108 108 107 107 110 112 106 101 100 97 94 88 81 76 73 71 77 77 82 79 71 72 67 62 35 27 15 22 2
100 99 99 109 107 110 111 120 125 127 123 121 117 114 117 115 114 116 113 110 109 107 106 101 91 85 85 81 84 72 65 59 61 64 68 74 71 58 33 15 20 23 31
103 105 106 107 107 105 105 103 102 107 127 127 123 125 124 119 116 116 116 111 105 98 93 95 97 94 99 95 89 71 59 65 60 73 66 64 54 43 28 20 15 21 47
107 105 110 113 112 111 106 98 95 100 105 109 117 127 124 122 122 120 115 104 102 113 118 106 98 90 88 95 96 70 62 56 63 60 61 53 48 33 23 25 28 63 47
123 125 125 122 121 120 118 115 109 100 99 100 111 119 121 121 120 117 114 124 130 121 107 99 93 97 100 94 79 60 55 47 35 45 65 59 44 32 26 26 56 31 15
127 131 132 133 131 126 121 118 119 122 118 114 119 121 121 121 118 109 109 140 138 132 122 111 109 110 91 71 60 45 48 38 65 78 62 46 34 26 21 25 25 11 349
144 145 142 143 142 136 131 128 124 121 123 129 134 136 133 124 106 90 99 140 138 136 135 129 118 98 60 60 56 33 8 0 67 85 59 42 27 21 18 17 24 23 14
162 162 160 163 166 165 157 151 150 144 141 142 148 150 150 139 112 88 113 119 117 130 158 158 156 130 116 87 22 38 25 30 141 116 52 23 20 15 11 16 6 358 355
197 201 199 204 204 196 180 193 188 177 168 170 172 174 175 183 195 174 152 140 138 136 127 110 198 171 183 172 96 19 39 149 159 180 17 18 339 357 12 2 2 4 19
174 174 180 176 171 177 179 189 196 190 186 191 202 199 200 205 165 166 164 162 165 170 183 152 121 173 184 177 159 248 299 197 201 232 276 327 343 358 17 3 8 31 60
209 197 194 185 184 180 176 169 179 186 188 190 176 175 177 169 174 175 176 174 176 169 147 138 161 149 178 206 244 258 235 217 224 247 288 306 304 21 10 9 26 27 16
157 219 200 192 188 187 186 190 178 189 191 188 180 184 180 186 186 183 179 182 191 192 193 196 193 204 281 296 290 204 212 215 242 279 295 294 244 275 11 68 18 5 357
25 4 210 198 197 201 203 202 194 195 201 202 196 197 199 198 191 191 193 196 199 215 220 198 197 189 136 106 252 256 260 269 277 276 275 266 198 145 108 5 345 348 356
7 348 215 214 213 216 221 219 209 202 193 203 208 203 199 197 201 204 199 197 201 202 198 194 202 197 201 232 247 267 264 240 223 295 289 189 181 192 302 313 310 332 345